User: anonymous   Login
Location: Chervonnoye
(48.6000°N, 34.4000°E)
Time: 09:27:05
(UTC+00:00)
Language:

Cosmos 1328 Rocket - Orbit

View from above orbital plane
View from above orbital plane
View from above satellite
View from above satellite

Ground track
Ground track

The orbit data is extracted from the following two-line orbital elements,

1 12988U 81117B   21065.75081850  .00000110  00000-0  10094-4 0  9994
2 12988  82.5224 238.8731 0019053  42.5611 328.0437 14.84799930100363
Epoch (UTC): 06 March 2021 18:01:10
Eccentricity: 0.0019053
inclination: 82.5224°
perigee height: 601 km
apogee height: 627 km
right ascension of ascending node: 238.8731°
argument of perigee: 42.5611°
revolutions per day: 14.84799930
mean anomaly at epoch: 328.0437°
orbit number at epoch: 10036

The dashed part of the orbit path shows where the satellite is in the earth's shadow,  

DLR